User: anonymous   Login
Location: Unspecified
(0.0000°N, 0.0000°E)
Time: 19:17:02
(UTC+00:00)
Language:

GALILEO-FM4 - Orbit

View from above orbital plane
View from above orbital plane
View from above satellite
View from above satellite

Ground track
Ground track

The orbit data is extracted from the following two-line orbital elements,

1 38858U 12055B   21025.83039432  .00000022  00000-0  00000+0 0  9990
2 38858  55.0187 155.6608 0000933 232.7729 127.1690  1.70473559 51551
Epoch (UTC): 25 January 2021 19:55:46
Eccentricity: 0.0000933
inclination: 55.0187°
perigee height: 23219 km
apogee height: 23225 km
right ascension of ascending node: 155.6608°
argument of perigee: 232.7729°
revolutions per day: 1.70473559
mean anomaly at epoch: 127.1690°
orbit number at epoch: 5155

The dashed part of the orbit path shows where the satellite is in the earth's shadow,  

DLR